STARLINK-32141, 60290

Orbit data source: Space-Track

STARLINK-32141, 60290 is a payload satellite owned by SpaceX/Seattle (US) in LEO that was launched on Sun, 28 Jul 2024 UTC via an FALCON 9 launch vehicle from the Air Force Eastern Test Range (AFETR). Payload-class satellites include a variety of spacecraft equipped with specific instruments for various scientific and technological missions. These include communications satellites like Starlink; space stations such as the ISS; scientific satellites like the Hubble; Earth observation satellites from companies like Planet Labs, Umbra, and HawkEye 360; GPS; miniature CubeSats for education and research; and military/defense satellites.

Loading next visibility...
Identifier
60290, 2024-132N
Orbit
LEO
Country
Flag of USUS
Related business
Manufacturer
SpaceX/Seattle
Mission
Operational spacecraft
Bus & Motor
STARLINK V2M, Unknown motor
Mass
730 kg wet, ~700 kg dry
Launch date (UTC)
2024-07-28 (1 year ago)
Launch vehicle
FALCON 9
Launch site
Air Force Eastern Test Range (AFETR)
Object type
Payload
Rocket body
Debris
Shape & HBR
Unknown
Radar Cross Section
Large (>1 m²)

Expand to show TLE details & history
Last TLE update: 11 hours ago

TLE from 11 hours ago
0 STARLINK-32141
1 60290U 24132N   25260.94944348 -.00000191  00000-0  56626-5 0  9991
2 60290  53.1601 134.7496 0001178  89.3444 270.7692 15.30198118 65111
Epoch: 2025-09-17T22:47Z
TLE epoch observation values (Epoch: 2025-09-17T22:47:11.916Z)
Latitude
-0.00001°
Longitude
155.83189°
Altitude
476.11 km
Speed
7.629 km/s
True Right ascension
08h 58m 59s
True Declination
0° 00' 00"
Sunlit
Object was in daylight at epoch
Visualization orbit readout
Latitude
Unknown
Longitude
Unknown
Altitude
Unknown
Speed
Unknown
Apparent Right ascension
Unknown
Apparent Declination
Unknown
Sunlit
N/A
Visualization observer readout
Local Sidereal Time
02:14:29
Azimuth
Unknown
Elevation
Unknown
Doppler factor
Unknown
Orbital elements
Apogee altitude
476.284 km
Perigee altitude
474.67 km
Semi-major axis
6,853.614 km
Eccentricity
0.00012
Inclination
53.1601°
RAAN
134.7496°
Arg. of periapsis
89.3444°
True anomaly
270.7557°
Mean anomaly
270.7692°
Eccentric anomaly
270.76245°
Mean motion
3.82528 °/min
Orbital period
94.11 mins
BSTAR
0.0000056626
Loading maneuver chart data...
Computing Atmospheric mass density...
Loading historical data...
Loading historical data...
Loading historical data...
Loading historical data...
Loading historical data...
Loading historical data...
Loading historical data...

Documentation

Showing up to 5 results
|